Home > Weather > Bloemfontein > Past weeks

Flag for South Africa Weather for the Past 2 Weeks in Bloemfontein, South Africa

Now
66 °F

Mild.


Feels Like: 66 °F
Forecast: 67 / 95 °F
Wind: 5 mph from East

Location: Bloemfontein Airport

Current Time: Feb 11, 2016 at 5:01:01 AM

Latest Report: Feb 11, 2016 at 4:00 AM


Visibility: N/A

Pressure: 30.01 "Hg (25.49 "Hg at 1397m altitude)

Humidity: 60%

Dew point: 52 °F

Location of BloemfonteinLocation

Historic Weather in Bloemfontein — Graph

°F

Bloemfontein Temperature Yesterday

Maximum temperature yesterday: 93 °F (at 5:00 PM)
Minimum temperature yesterday: 52 °F (at 8:00 PM)
Average temperature yesterday: 78 °F

High & Low Weather Summary for the Past Weeks

 TemperatureHumidityPressure
High95 °F (Jan 30, 5:00 PM)88% (Jan 27, 4:00 AM)30.33 "Hg (Jan 27, 4:00 AM)
Low52 °F (Feb 10, 8:00 PM)7% (Feb 7, 5:00 PM)29.92 "Hg (Feb 3, 5:00 PM)
Average77 °F42%30.11 "Hg
* Reported Jan 27 3:00 AM — Feb 11 3:00 AM, Bloemfontein, Weather by CustomWeather, © 2016

Note: Actual official high and low records may vary slightly from our data, if they occured in-between our weather recording intervals... More about our weather records

Advertising

Bloemfontein Weather History for the Previous 24 Hours

 ConditionsComfort  
Time TempWeatherWind HumidityBarometerVisibility
3:00 AM
Thu, Feb 11
66 °FMild.2 mph60%30.01 "HgN/A
2:00 AM64 °FMild.9 mph64%30.01 "HgN/A
1:00 AM68 °FMild.5 mph56%30.01 "HgN/A
12:00 AM70 °FMild.5 mph50%29.98 "HgN/A
11:00 PM
Wed, Feb 10
75 °FMild.2 mph41%29.98 "HgN/A
10:00 PM75 °FMild.6 mph47%29.98 "HgN/A
9:00 PM75 °FMild.6 mph50%29.98 "HgN/A
8:00 PM52 °FClear.8 mph28%29.98 "Hg10 mi
7:00 PM90 °FPassing clouds.6 mph13%29.95 "HgN/A
6:00 PM91 °FPassing clouds.7 mph12%29.95 "HgN/A
5:00 PM93 °FSunny.10 mph11%29.95 "Hg10 mi
4:00 PM91 °FPassing clouds.12 mph17%29.95 "HgN/A
2:00 PM91 °FSunny.8 mph16%30.01 "Hg10 mi
1:00 PM90 °FPassing clouds.9 mph22%30.04 "HgN/A
12:00 PM88 °FPassing clouds.12 mph25%30.07 "HgN/A
11:00 AM84 °FSunny.6 mph31%30.09 "Hg10 mi
10:00 AM81 °FPassing clouds.8 mph39%30.09 "HgN/A
9:00 AM75 °FPassing clouds.8 mph47%30.09 "HgN/A
8:00 AM72 °FSunny.7 mph50%30.12 "Hg10 mi
7:00 AM66 °FSunny.8 mph64%30.09 "Hg10 mi
6:00 AM63 °FPassing clouds.3 mph68%30.09 "HgN/A
5:00 AM63 °FSunny.No wind68%30.07 "Hg10 mi
Weather by CustomWeather, © 2016

See weather overviewHow to use our weather pages